Regional Weather Roundup
Issued by NWS

Home | Current Version | Previous Version | Text Only | Print | Product List | Glossary On
Versions: 1 2 3 4 5 6 7 8 9 10 11 12 13 14 15 16 17 18 19 20 21 22 23 24 25 26 27 28 29 30 31 32 33 34 35 36 37 38 39 40 41 42 43 44 45 46 47 48 49 50
000
ASUS45 KREV 260610
RWRNV
NEVADA REGIONAL WEATHER ROUNDUP
NATIONAL WEATHER SERVICE RENO NV
1000 PM PST SAT FEB 25 2017

NOTE: "FAIR" INDICATES FEW OR NO CLOUDS BELOW 12,000 FEET WITH NO
SIGNIFICANT WEATHER AND/OR OBSTRUCTIONS TO VISIBILITY.

NVZ001-003-004-260700-
WESTERN NEVADA

CITY           SKY/WX    TMP DP  RH WIND       PRES   REMARKS
RENO           CLOUDY    32  22  66 NW3       30.00S
6HR MIN TEMP:  31; 6HR MAX TEMP:  36;

CARSON CITY    CLOUDY    32  23  69 CALM      30.01R
MINDEN         CLOUDY    28  27  93 NW7       30.00S
PYRAMID LAKE     N/A     32 N/A N/A W7          N/A
FALLON         CLOUDY    31  23  72 N5        30.01R
6HR MIN TEMP:  28; 6HR MAX TEMP:  41;

LOVELOCK         N/A     28  22  78 N3        30.01S
6HR MIN TEMP:  26; 6HR MAX TEMP:  35;

HAWTHORNE      CLEAR     32  18  55 NW9       29.99S
$$

NVZ002-CAZ072-073-260700-
NORTHERN AND CENTRAL SIERRA

CITY           SKY/WX    TMP DP  RH WIND       PRES   REMARKS
S. LAKE TAHOE  PTCLDY    23  19  85 CALM      29.93R
6HR MIN TEMP:  23; 6HR MAX TEMP:  34; 6HR PCP: TRACE;

TRUCKEE        FOG       16  14  93 CALM      29.97S VSB 1/4
SQUAW VLY 8000   N/A     18  18 100 CALM        N/A
SUSANVILLE     CLEAR    N/A N/A N/A W3        30.02S
MAMMOTH LAKES  FAIR      18   7  62 CALM      29.91R
6HR MIN TEMP:  17; 6HR MAX TEMP:  34;

BRIDGEPORT       N/A     15   6  67 VRB3      29.91R
$$

NVZ030-031-036-260700-
NORTHERN NEVADA

CITY           SKY/WX    TMP DP  RH WIND       PRES   REMARKS
ELKO           CLEAR     22  14  71 CALM      29.97S
6HR MIN TEMP:  22; 6HR MAX TEMP:  33;

WINNEMUCCA     NOT AVBL
WENDOVER       CLEAR     23  14  68 CALM      29.99S
$$

NVZ035-037-260700-
CENTRAL NEVADA

CITY           SKY/WX    TMP DP  RH WIND       PRES   REMARKS
ELY            PTCLDY    11   7  84 S9        29.94S
6HR MIN TEMP:  11; 6HR MAX TEMP:  28;

EUREKA           N/A     18  12  77 S3        29.95S
6HR MIN TEMP:  18; 6HR MAX TEMP:  30;

$$

NVZ013-014-260700-
SOUTH CENTRAL NEVADA

CITY           SKY/WX    TMP DP  RH WIND       PRES   REMARKS
TONOPAH        CLOUDY    31  16  54 N8        29.93R
6HR MIN TEMP:  30; 6HR MAX TEMP:  41;

$$

NVZ017-020-022-260700-
SOUTHERN NEVADA

CITY           SKY/WX    TMP DP  RH WIND       PRES   REMARKS
LAS VEGAS      MOCLDY    46  20  35 N6        29.92S
6HR MIN TEMP:  46; 6HR MAX TEMP:  52;

N. LAS VEGAS   CLEAR     43  24  47 NW6       29.93S
6HR MIN TEMP:  42; 6HR MAX TEMP:  51;

NELLIS AFB     CLEAR     42  25  50 NE8       29.93F
6HR MIN TEMP:  41; 6HR MAX TEMP:  52;

HENDERSON      CLEAR     42  24  49 CALM      29.94F
6HR MIN TEMP:  41; 6HR MAX TEMP:  51;

MERCURY        CLEAR     36  20  52 E7        29.92S
6HR MIN TEMP:  34; 6HR MAX TEMP:  49;

$$



USA.gov is the U.S. government's official web portal to all federal, state and local government web resources and services.